Regional Weather Roundup
Issued by NWS

Home | Current Version | Previous Version | Text Only | Print | Product List | Glossary Off
Versions: 1 2 3 4 5 6 7 8 9 10 11 12 13 14 15 16 17 18 19 20 21 22 23 24 25 26 27 28 29 30 31 32 33 34 35 36 37 38 39 40 41 42 43 44 45 46 47 48 49 50

000
ASUS43 KLOT 041709
RWRIL

ILLINOIS REGIONAL WEATHER ROUNDUP
NATIONAL WEATHER SERVICE CHICAGO/ROMEOVILLE IL
1200 PM CDT FRI SEP 04 2015

NOTE: "FAIR" INDICATES FEW OR NO CLOUDS BELOW 12,000 FEET WITH NO
SIGNIFICANT WEATHER AND/OR OBSTRUCTIONS TO VISIBILITY.

* THESE STATIONS ARE NOT UNDER NWS QUALITY CONTROL. THEY ALSO MAY NOT
  REPORT WEATHER SUCH AS PRECIPITATION OR FOG.

ILZ001-002-007-009-015-016-024-041800-
NORTHWEST ILLINOIS

CITY           SKY/WX    TMP DP  RH WIND       PRES   REMARKS
MOLINE         MOSUNNY   90  69  50 NW6       30.01S HX  94
STERLING*      PTSUNNY   88  72  58 W3        30.00F HX  94
SAVANNA*       PTSUNNY   82  70  66 SW5       30.02S HX  86
$$

ILZ003-004-008-010-011-017-018-041800-
NORTH CENTRAL ILLINOIS

CITY           SKY/WX    TMP DP  RH WIND       PRES   REMARKS
ROCKFORD       MOSUNNY   82  70  66 S7        30.04F HX  86
FREEPORT*      SUNNY     80  71  74 S3        30.05S HX  83
ROCHELLE*      MOSUNNY   82  71  70 CALM      30.04S HX  86
DE KALB*       CLOUDY    80  71  73 S6        30.05S HX  83
PERU*          MOSUNNY   86  67  53 W5        30.03F HX  89
$$

ILZ005-006-012>014-019>023-041800-
NORTHEAST ILLINOIS

CITY           SKY/WX    TMP DP  RH WIND       PRES   REMARKS
CHICAGO-OHARE  PTSUNNY   78  67  68 CALM      30.03S HX  80
CHICAGO-MIDWAY MOSUNNY   84  68  58 CALM      30.03S HX  87
AURORA         MOSUNNY   83  71  67 CALM      30.04S HX  87
LANSING*       PTSUNNY   82  69  66 CALM      30.03F HX  85
JOLIET*        MOSUNNY   85  71  64 CALM      30.02F HX  90
WAUKEGAN       CLOUDY    72  66  81 NE6       30.04S
DUPAGE AIRPORT SUNNY     83  70  64 VRB3      30.03F HX  87
KANKAKEE*      PTSUNNY   85  72  66 CALM      30.03F HX  90
WHEELING       SUNNY     76  67  73 CALM      30.05S
MORRIS*        MOSUNNY   83  72  69 CALM      30.02F HX  88
ROMEOVILLE*    PTSUNNY   81  68  63 CALM      30.03F HX  84
NORTHERLY ISL    N/A     73  67  81 N5          N/A
$$

LMZ740>746-041800-
SOUTHERN LAKE MICHIGAN

STATION/POSITION SKY/WX   TEMP    WIND        PRES    VSBY  WAVE
                          AIR SEA DIR/SP/G                  HT/PER
                          (F)     (DEG/KT/KT) (MB)    (MI)  (FT/S)
SOUTHERN BUOY              68 71  290/  6/  8 1016.9R
WILMETTE HARBOR            67 71  170/  6/  8   N/A           2/ 4
HARRISON CRIB              69     350/ 10/ 11   N/A
BURNHAM HARBOR             74      50/  6/  8   N/A
CALUMET HARBOR             73      20/  6/  8   N/A
BURNS HARBOR               72      20/  5/  6 1017.6R
MICHIGAN CITY              74     340/  5/  6   N/A
MICHIGAN CITY 6N           72 74   20/  6/  8   N/A           1/ 4
ST. JOSEPH                 71 76   30/  4/  6   N/A           1/ 4
$$

ILZ025>027-034>036-040-047-049-050-058-095>099-041800-
WEST-CENTRAL ILLINOIS

CITY           SKY/WX    TMP DP  RH WIND       PRES   REMARKS
QUINCY         SUNNY     89  69  51 SW6       30.03F HX  93
GALESBURG*     MOSUNNY   89  69  51 SW3       30.03S HX  93
MACOMB*        SUNNY     91  69  48 S6        30.04F HX  95
JACKSONVILLE*  MOSUNNY   92  68  45 SW3       30.03F HX  95
PITTSFIELD*    SUNNY     90  68  48 SW6       30.04F HX  93
$$

ILZ028>032-037-038-041>044-048-051>054-059>061-041800-
CENTRAL ILLINOIS

CITY           SKY/WX    TMP DP  RH WIND       PRES   REMARKS
PONTIAC        MOSUNNY   89  74  60 W6        30.03F HX  98
BLOOMINGTON    MOSUNNY   91  70  50 SW8       30.05F HX  96
DECATUR        SUNNY     90  68  48 VRB6      30.04F HX  94
PEORIA         SUNNY     92  67  43 VRB3      30.02F HX  95
LACON*         SUNNY     86  70  58 SW3       30.01F HX  91
LINCOLN*       MOSUNNY   90  68  48 CALM      30.01F HX  94
SPRINGFIELD    SUNNY     91  69  48 SW7       30.03F HX  96
TAYLORVILLE    MOSUNNY   90  68  48 SW5       30.03F HX  93
$$

ILZ033-039-045-046-055>057-062-063-041800-
EAST-CENTRAL ILLINOIS

CITY           SKY/WX    TMP DP  RH WIND       PRES   REMARKS
CHAMPAIGN      MOSUNNY   88  67  49 SW6       30.04F HX  91
MATTOON        MOSUNNY   90  64  42 VRB6      30.04S HX  91
PARIS*         MOSUNNY   89  69  50 S6        30.05S HX  93
$$

ILZ079-100>102-041800-
SOUTHWEST ILLINOIS

CITY           SKY/WX    TMP DP  RH WIND       PRES   REMARKS
ALTON          MOSUNNY   88  70  55 SW6       30.04F HX  92
BELLEVILLE     SUNNY     90  73  56 VRB2      30.02F HX  97
CAHOKIA*       SUNNY     90  69  50 S5        30.03F HX  94
SPARTA*        SUNNY     87  70  57 SW5       30.06S HX  92
$$

ILZ064>066-069>071-074>076-080>082-084>086-088>090-092>094-041800-
SOUTH-CENTRAL ILLINOIS

CITY           SKY/WX    TMP DP  RH WIND       PRES   REMARKS
CARBONDALE     MOSUNNY   89  69  51 CALM      30.04F HX  93
CAIRO*         MOSUNNY   88  74  63 CALM      30.04F HX  96
EFFINGHAM*     PTSUNNY   89  63  42 SW5       30.06S HX  89
MT. VERNON     MOSUNNY   91  70  49 S5        30.05F HX  97
CENTRALIA*     SUNNY     90  72  55 W5        30.04F HX  96
SALEM*         SUNNY     91  69  49 W5        30.05S HX  95
METROPOLIS*    SUNNY     89  73  58 CALM      30.05S HX  97
$$

ILZ067-068-072-073-078-083-087-091-041800-
SOUTHEAST ILLINOIS

CITY           SKY/WX    TMP DP  RH WIND       PRES   REMARKS
LAWRENCEVILLE  SUNNY     91  66  43 SW7       30.04F HX  93
FLORA*         SUNNY     90  66  45 NW3       30.04F HX  92
FAIRFIELD*     MOSUNNY   89  69  51 SW5       30.04S HX  93
HARRISBURG*    PTSUNNY   90  69  51 CALM      30.04F HX  94
ROBINSON*      MOSUNNY   90  67  47 SW5       30.05F HX  93
CARMI*         SUNNY     90  70  51 S5        30.04F HX  95
$$

ABBREVIATIONS USED IN REMARKS
   TC - TEMPERATURE IN CELSIUS
  WCI - WIND CHILL INDEX
   HX - HEAT INDEX
  VSB - VISIBILITY
$$



USA.gov is the U.S. government's official web portal to all federal, state and local government web resources and services.